WXM80 ListenWXM80 Stop

You find our weather info also at:

UK Metoffice

WeatherCloud

Weather Underground

Northeastern Weather Network

AWEKAS

Citizen Weather Observer Program (CWOP)

HAMweather, WeatherForYou, PWS Weather


Weather Underground History page Text

Daily Summary for March 10, 2017 Units:  Metric    English   Both
« Previous Day
Next Day »
Daily Weekly Monthly Yearly Custom
  High: Low: Average:
Temperature: 8.1 °C -4.7 °C 1.2 °C
Dew Point: 0.2 °C -11.7 °C -2.7 °C
Humidity: 95 % 44 % 77 %
Wind Speed: 22.2 km/h 0.2 km/h 9.2 km/h
Wind Gust: 42.6 km/h - -
Wind:- - South
Pressure: 1014.8 hPa 1007 hPa -
Precipitation: 6.86 mm    
Historical Graphs
 
 
Tabular Data for March 10, 2017
Time Temperature Dew Point Pressure Wind Wind Speed Wind Gust Humidity Rainfall Rate (Hourly)
00:03 8.1 °C -3.2 °C 1014.1 hPa NW 1.9 km/h 11.1 km/h 45 % 0 mm
00:08 8.1 °C -3.5 °C 1013.8 hPa NW 5.8 km/h 13 km/h 44 % 0 mm
00:13 8 °C -3.2 °C 1013.8 hPa West 4.5 km/h 5.6 km/h 45 % 0 mm
00:18 7.9 °C -2.4 °C 1013.8 hPa WNW 0.2 km/h 1.9 km/h 48 % 0 mm
00:23 7.9 °C -1.8 °C 1013.8 hPa NW 2.6 km/h 5.6 km/h 50 % 0 mm
00:28 7.8 °C -1.9 °C 1013.8 hPa NW 2.4 km/h 5.6 km/h 50 % 0 mm
00:33 7.8 °C -2 °C 1013.4 hPa NNW 1.6 km/h 5.6 km/h 50 % 0 mm
00:38 7.7 °C -2.1 °C 1013.4 hPa North 3.5 km/h 5.6 km/h 50 % 0 mm
00:44 7.6 °C -2.2 °C 1013.1 hPa North 3.1 km/h 7.4 km/h 50 % 0 mm
00:49 7.5 °C -1.5 °C 1013.4 hPa North 2.9 km/h 6.4 km/h 53 % 0 mm
00:54 7.4 °C -1.1 °C 1013.1 hPa NNE 1.8 km/h 4.8 km/h 55 % 0 mm
00:59 7.3 °C -1.2 °C 1013.4 hPa NNE 2.3 km/h 3.7 km/h 55 % 0 mm
01:04 7.1 °C -1.6 °C 1013.1 hPa North 2.3 km/h 7.4 km/h 54 % 0 mm
01:09 7 °C -1.9 °C 1013.1 hPa NW 9.7 km/h 13 km/h 53 % 0 mm
01:14 6.9 °C -2.6 °C 1013.1 hPa NNE 5.6 km/h 9.3 km/h 51 % 0 mm
01:19 6.9 °C -2.8 °C 1013.1 hPa North 7.2 km/h 9.7 km/h 50 % 0 mm
01:24 6.8 °C -2.9 °C 1012.8 hPa NNE 7.1 km/h 9.3 km/h 50 % 0 mm
01:29 6.8 °C -2.6 °C 1012.8 hPa NNE 11.7 km/h 16.7 km/h 51 % 0 mm
01:34 6.8 °C -1.6 °C 1012.8 hPa NNE 7.9 km/h 16.7 km/h 55 % 0 mm
01:39 6.8 °C -1.7 °C 1012.8 hPa NNE 6.9 km/h 11.1 km/h 55 % 0 mm
01:44 6.7 °C -1.7 °C 1012.8 hPa NE 7.4 km/h 11.1 km/h 55 % 0 mm
01:49 6.6 °C -1.1 °C 1012.4 hPa NNE 5.3 km/h 9.3 km/h 58 % 0 mm
01:55 6.5 °C -0.9 °C 1012.8 hPa NNE 7.2 km/h 11.1 km/h 59 % 0 mm
02:00 6.3 °C -1.3 °C 1012.4 hPa NNE 11.9 km/h 13 km/h 58 % 0 mm
02:05 6.2 °C -1.4 °C 1012.4 hPa NNE 9.5 km/h 16.7 km/h 58 % 0 mm
02:10 6.1 °C -1.8 °C 1012.4 hPa NNE 6.9 km/h 14.8 km/h 57 % 0 mm
02:15 6 °C -1.4 °C 1012.1 hPa NE 5.6 km/h 7.4 km/h 59 % 0 mm
02:20 5.9 °C -0.8 °C 1012.1 hPa ENE 5.1 km/h 13 km/h 62 % 0 mm
02:25 5.8 °C -0.4 °C 1012.4 hPa NE 3.9 km/h 7.4 km/h 64 % 0 mm
02:30 5.8 °C -0.7 °C 1012.4 hPa ENE 3.5 km/h 5.6 km/h 63 % 0 mm
02:35 5.7 °C -0.8 °C 1012.4 hPa NNE 2.6 km/h 5.6 km/h 63 % 0 mm
02:40 5.7 °C -0.8 °C 1012.4 hPa NNE 6.1 km/h 11.1 km/h 63 % 0 mm
02:45 5.6 °C -0.9 °C 1012.4 hPa NNE 5 km/h 9.7 km/h 63 % 0 mm
02:50 5.6 °C -0.7 °C 1012.4 hPa ENE 4.5 km/h 11.1 km/h 64 % 0 mm
02:55 5.4 °C -0.6 °C 1012.4 hPa ENE 4.5 km/h 7.4 km/h 65 % 0 mm
03:01 5.3 °C -0.7 °C 1012.4 hPa NE 6.8 km/h 11.1 km/h 65 % 0 mm
03:06 5.3 °C -0.8 °C 1012.1 hPa ENE 6.9 km/h 11.3 km/h 65 % 0 mm
03:11 5.2 °C -0.8 °C 1012.4 hPa ENE 7.1 km/h 9.3 km/h 65 % 0 mm
03:16 5.2 °C -0.9 °C 1012.4 hPa ENE 4.5 km/h 7.4 km/h 65 % 0 mm
03:21 5.1 °C -0.7 °C 1012.8 hPa ENE 5.1 km/h 7.4 km/h 66 % 0 mm
03:26 5.1 °C -0.8 °C 1012.8 hPa NE 4.3 km/h 6.4 km/h 66 % 0 mm
03:31 5.1 °C -0.8 °C 1012.8 hPa ENE 3.5 km/h 5.6 km/h 66 % 0 mm
03:36 5 °C -0.8 °C 1012.4 hPa ENE 3.2 km/h 6.4 km/h 66 % 0 mm
03:41 5 °C -1.1 °C 1011.7 hPa ENE 4.8 km/h 7.4 km/h 65 % 0 mm
03:46 4.9 °C -1.1 °C 1012.1 hPa NE 3.5 km/h 5.6 km/h 65 % 0 mm
03:51 4.9 °C -0.9 °C 1011.7 hPa NE 1.6 km/h 3.7 km/h 66 % 0 mm
03:56 4.9 °C -0.7 °C 1011.7 hPa ENE 1.9 km/h 5.6 km/h 67 % 0 mm
04:01 4.9 °C -0.7 °C 1011.7 hPa ENE 1.6 km/h 3.2 km/h 67 % 0 mm
04:07 4.8 °C -0.8 °C 1011.7 hPa ENE 1 km/h 1.9 km/h 67 % 0 mm
04:12 4.8 °C -0.6 °C 1011.7 hPa ENE 0.8 km/h 5.6 km/h 68 % 0 mm
04:17 4.8 °C -0.4 °C 1011.7 hPa ENE 2.7 km/h 5.6 km/h 69 % 0 mm
04:22 4.8 °C -0.4 °C 1011.7 hPa NE 3.5 km/h 7.4 km/h 69 % 0 mm
04:27 4.7 °C -0.5 °C 1011.7 hPa NE 2.7 km/h 5.6 km/h 69 % 0 mm
04:32 4.7 °C -0.3 °C 1011.4 hPa East 5.5 km/h 7.4 km/h 70 % 0 mm
04:37 4.7 °C -1.3 °C 1011.4 hPa ENE 13.4 km/h 18.5 km/h 65 % 0 mm
04:42 4.6 °C -1.7 °C 1011.4 hPa ENE 7.6 km/h 14.8 km/h 64 % 0 mm
04:47 4.4 °C -1.6 °C 1011.4 hPa ENE 17.7 km/h 24.1 km/h 65 % 0 mm
04:52 4.3 °C -1.9 °C 1011.4 hPa North 13.8 km/h 31.5 km/h 64 % 0 mm
04:57 4.2 °C -1.8 °C 1011.4 hPa ENE 10.1 km/h 16.7 km/h 65 % 0 mm
05:02 4.1 °C -1.7 °C 1011.1 hPa NNE 10.6 km/h 18.5 km/h 66 % 0 mm
05:08 3.9 °C -1.7 °C 1011.1 hPa NNE 13.7 km/h 16.7 km/h 67 % 0 mm
05:13 3.7 °C -1.8 °C 1010.7 hPa NE 8 km/h 20.4 km/h 67 % 0 mm
05:18 3.6 °C -1.8 °C 1011.1 hPa NNE 9 km/h 11.1 km/h 68 % 0 mm
05:23 3.4 °C -1.8 °C 1011.1 hPa ENE 9.3 km/h 18.5 km/h 69 % 0 mm
05:28 3.2 °C -1.7 °C 1011.1 hPa NE 11.3 km/h 20.9 km/h 70 % 0 mm
05:33 3.1 °C -1.9 °C 1010.7 hPa NE 12.9 km/h 22.5 km/h 70 % 0 mm
05:38 2.9 °C -1.8 °C 1010.7 hPa NE 9.5 km/h 13 km/h 71 % 0 mm
05:43 2.8 °C -1.9 °C 1010.7 hPa North 8 km/h 13 km/h 71 % 0 mm
05:48 2.8 °C -1.8 °C 1010.7 hPa NE 9.7 km/h 19.3 km/h 72 % 0 mm
05:53 2.7 °C -1.9 °C 1010.7 hPa NE 11.3 km/h 19.3 km/h 72 % 0 mm
05:58 2.6 °C -1.8 °C 1010.7 hPa NE 8 km/h 14.8 km/h 73 % 0 mm
06:03 2.5 °C -1.7 °C 1010.7 hPa ENE 9.7 km/h 14.8 km/h 74 % 0 mm
06:08 2.4 °C -1.8 °C 1010.7 hPa ENE 6.8 km/h 9.3 km/h 74 % 0 mm
06:13 2.2 °C -1.9 °C 1010.7 hPa ENE 17.5 km/h 22.2 km/h 74 % 0 mm
06:18 2.1 °C -1.7 °C 1011.1 hPa ENE 14.3 km/h 22.2 km/h 76 % 0 mm
06:23 2 °C -1.6 °C 1011.1 hPa NE 10.9 km/h 18.5 km/h 77 % 0 mm
06:28 2 °C -1.4 °C 1011.4 hPa NE 12.1 km/h 22.2 km/h 78 % 0 mm
06:33 2 °C -1.4 °C 1011.4 hPa ENE 7.4 km/h 18.5 km/h 78 % 0 mm
06:39 1.9 °C -1.5 °C 1011.7 hPa ENE 9.8 km/h 18.5 km/h 78 % 0 mm
06:44 1.9 °C -1.2 °C 1011.7 hPa NE 9.5 km/h 16.7 km/h 80 % 0 mm
06:49 1.8 °C -1.3 °C 1011.7 hPa ENE 12.4 km/h 19.3 km/h 80 % 0 mm
06:54 1.8 °C -1.1 °C 1011.7 hPa ENE 12.7 km/h 18.5 km/h 81 % 0 mm
06:59 1.7 °C -1.2 °C 1012.1 hPa ENE 14.3 km/h 18.5 km/h 81 % 0 mm
07:04 1.5 °C -1.1 °C 1011.7 hPa ENE 9.3 km/h 16.7 km/h 83 % 0 mm
07:09 1.3 °C -0.9 °C 1011.7 hPa NE 12.7 km/h 20.4 km/h 85 % 0 mm
07:14 1.1 °C -1 °C 1011.7 hPa ENE 13.2 km/h 18.5 km/h 86 % 0 mm
07:19 0.8 °C -0.9 °C 1011.7 hPa ENE 12.7 km/h 20.4 km/h 88 % 0 mm
07:24 0.7 °C -0.9 °C 1011.7 hPa ENE 10.5 km/h 18.5 km/h 89 % 0 mm
07:29 0.6 °C -0.9 °C 1011.4 hPa ENE 9.8 km/h 18.5 km/h 90 % 0 mm
07:34 0.5 °C -0.8 °C 1011.4 hPa ENE 10.9 km/h 18.5 km/h 91 % 0 mm
07:40 0.4 °C -0.8 °C 1011.4 hPa ENE 14.3 km/h 18.5 km/h 91 % 0 mm
07:45 0.4 °C -0.8 °C 1011.4 hPa ENE 13.4 km/h 18.5 km/h 92 % 0 mm
07:50 0.3 °C -0.8 °C 1011.1 hPa East 14.6 km/h 18.5 km/h 92 % 0.25 mm
07:55 0.3 °C -0.9 °C 1010.7 hPa ENE 9 km/h 18.5 km/h 92 % 0.25 mm
08:00 0.2 °C -0.8 °C 1010.7 hPa ENE 14.6 km/h 22.2 km/h 93 % 0.25 mm
08:05 0.2 °C -0.8 °C 1010.7 hPa ENE 14.8 km/h 20.9 km/h 93 % 0.25 mm
08:10 0.2 °C -0.8 °C 1010.7 hPa ENE 11.1 km/h 16.7 km/h 93 % 0.25 mm
08:15 0.2 °C -0.8 °C 1010.7 hPa NE 9.8 km/h 14.8 km/h 93 % 0.25 mm
08:20 0.2 °C -0.7 °C 1010.7 hPa ENE 13.7 km/h 17.7 km/h 94 % 0.51 mm
08:25 0.1 °C -0.7 °C 1010.7 hPa NE 9 km/h 14.8 km/h 94 % 0.51 mm
08:30 0.2 °C -0.7 °C 1010.4 hPa ENE 14.5 km/h 24.1 km/h 94 % 0.51 mm
08:35 0.2 °C -0.7 °C 1010.4 hPa ENE 13.5 km/h 20.4 km/h 94 % 0.51 mm
08:41 0.2 °C -0.7 °C 1010.4 hPa NE 14.2 km/h 20.9 km/h 94 % 0.51 mm
08:46 0.2 °C -0.7 °C 1010.4 hPa ENE 13.4 km/h 16.7 km/h 94 % 0.51 mm
08:51 0.2 °C -0.6 °C 1010.4 hPa ENE 12.9 km/h 18.5 km/h 94 % 0.51 mm
08:56 0.3 °C -0.6 °C 1010.4 hPa NE 10 km/h 11.1 km/h 94 % 0.51 mm
09:01 0.3 °C -0.6 °C 1010 hPa ENE 13.7 km/h 16.7 km/h 94 % 0.51 mm
09:06 0.3 °C -0.5 °C 1010 hPa ENE 10.3 km/h 14.8 km/h 94 % 0.76 mm
09:11 0.3 °C -0.5 °C 1010 hPa NE 13.5 km/h 18.5 km/h 94 % 0.76 mm
09:16 0.3 °C -0.6 °C 1010 hPa ENE 10 km/h 14.8 km/h 94 % 1.02 mm
09:21 0.3 °C -0.6 °C 1010 hPa NE 10 km/h 14.8 km/h 94 % 0.76 mm
09:26 0.3 °C -0.6 °C 1010 hPa ENE 15.4 km/h 20.9 km/h 94 % 0.76 mm
09:31 0.2 °C -0.6 °C 1010.4 hPa NE 10 km/h 18.5 km/h 94 % 1.02 mm
09:36 0.2 °C -0.6 °C 1010 hPa ENE 5.8 km/h 16.7 km/h 94 % 1.02 mm
09:41 0.2 °C -0.7 °C 1010 hPa NE 9.5 km/h 14.8 km/h 94 % 1.27 mm
09:46 0.2 °C -0.7 °C 1009.7 hPa ENE 7.7 km/h 16.7 km/h 94 % 1.27 mm
09:52 0.2 °C -0.7 °C 1009.7 hPa NE 8 km/h 14.8 km/h 94 % 1.02 mm
09:57 0.1 °C -0.8 °C 1009.7 hPa ENE 7.9 km/h 16.1 km/h 94 % 1.27 mm
10:02 0.1 °C -0.6 °C 1010 hPa NE 9 km/h 16.1 km/h 95 % 1.27 mm
10:07 0.1 °C -0.8 °C 1009.7 hPa ENE 13.4 km/h 14.8 km/h 94 % 1.27 mm
10:12 0.1 °C -0.7 °C 1009.7 hPa NE 6.6 km/h 13 km/h 94 % 1.27 mm
10:17 0.1 °C -0.7 °C 1009.4 hPa NE 4.7 km/h 16.7 km/h 94 % 1.02 mm
10:22 0.1 °C -0.6 °C 1009 hPa ENE 4 km/h 11.3 km/h 95 % 1.27 mm
10:27 0.1 °C -0.6 °C 1009 hPa ENE 8 km/h 16.7 km/h 95 % 1.02 mm
10:32 -0.1 °C -0.9 °C 1009 hPa ENE 12.4 km/h 18.5 km/h 94 % 1.02 mm
10:37 0 °C -0.7 °C 1009.4 hPa ENE 10.6 km/h 14.8 km/h 95 % 1.27 mm
10:42 0.1 °C -0.6 °C 1009.4 hPa ENE 9.5 km/h 13 km/h 95 % 1.02 mm
10:43 0.1 °C -0.6 °C 1009.4 hPa ENE 9.3 km/h 13 km/h 95 % 1.02 mm
10:48 0.1 °C -0.6 °C 1009 hPa ENE 9.8 km/h 12.9 km/h 95 % 1.02 mm
10:53 0.2 °C -0.6 °C 1009 hPa NE 8 km/h 14.5 km/h 95 % 0 mm
10:58 0.2 °C -0.5 °C 1008.7 hPa NNE 4.7 km/h 9.3 km/h 95 % 1.02 mm
11:03 0.3 °C -0.4 °C 1008.7 hPa NE 3.2 km/h 12.9 km/h 95 % 0 mm
11:08 0.3 °C -0.4 °C 1008.7 hPa NNE 8 km/h 11.3 km/h 95 % 0 mm
11:13 0.3 °C -0.4 °C 1008.7 hPa NNE 4.8 km/h 12.9 km/h 95 % 0 mm
11:18 0.3 °C -0.4 °C 1009.4 hPa NE 4.8 km/h 11.3 km/h 95 % 0 mm
11:23 0.3 °C -0.3 °C 1009 hPa NE 3.2 km/h 6.4 km/h 95 % 0 mm
11:28 0.4 °C -0.3 °C 1008.7 hPa NNE 3.2 km/h 6.4 km/h 95 % 0 mm
11:33 0.4 °C -0.3 °C 1009 hPa NNE 4.8 km/h 9.7 km/h 95 % 0 mm
11:38 0.4 °C -0.3 °C 1009 hPa NNE 4.8 km/h 11.3 km/h 95 % 0 mm
11:43 0.4 °C -0.3 °C 1009 hPa NNE 4.8 km/h 9.7 km/h 95 % 0 mm
11:48 0.4 °C -0.3 °C 1009 hPa North 4.8 km/h 11.3 km/h 95 % 0 mm
11:53 0.5 °C -0.2 °C 1008.7 hPa NNE 9.7 km/h 12.9 km/h 95 % 0 mm
11:58 0.5 °C -0.2 °C 1008.4 hPa North 8 km/h 11.1 km/h 95 % 1.02 mm
12:03 0.4 °C -0.3 °C 1008.4 hPa North 8 km/h 13 km/h 95 % 1.02 mm
12:08 0.4 °C -0.3 °C 1008.7 hPa NNW 8.5 km/h 11.3 km/h 95 % 1.02 mm
12:13 0.4 °C -0.3 °C 1008.4 hPa NNE 7.1 km/h 11.1 km/h 95 % 1.02 mm
12:18 0.4 °C -0.3 °C 1008.7 hPa NNE 5.6 km/h 7.4 km/h 95 % 1.02 mm
12:23 0.4 °C -0.3 °C 1008.4 hPa NNW 5.6 km/h 12.9 km/h 95 % 1.02 mm
12:28 0.4 °C -0.3 °C 1008.4 hPa NW 4.8 km/h 7.4 km/h 95 % 1.27 mm
12:33 0.4 °C -0.3 °C 1008.4 hPa North 3.2 km/h 6.4 km/h 95 % 1.27 mm
12:39 0.4 °C -0.3 °C 1008 hPa NNE 7.1 km/h 14.8 km/h 95 % 1.27 mm
12:44 0.4 °C -0.3 °C 1008 hPa NNW 13.4 km/h 18.5 km/h 95 % 1.27 mm
12:49 0.3 °C -0.4 °C 1008 hPa North 9.3 km/h 16.1 km/h 95 % 1.02 mm
12:54 0.3 °C -0.4 °C 1008 hPa NNE 9.3 km/h 13 km/h 95 % 1.27 mm
12:59 0.3 °C -0.4 °C 1007.7 hPa North 9.8 km/h 16.7 km/h 95 % 1.02 mm
13:04 0.3 °C -0.4 °C 1007.7 hPa North 9.5 km/h 16.7 km/h 95 % 1.27 mm
13:09 0.3 °C -0.4 °C 1007.7 hPa North 10.3 km/h 16.7 km/h 95 % 1.27 mm
13:14 0.3 °C -0.4 °C 1007.7 hPa North 5.6 km/h 14.8 km/h 95 % 1.27 mm
13:19 0.4 °C -0.3 °C 1007.3 hPa NNE 8.2 km/h 14.8 km/h 95 % 1.27 mm
13:24 0.4 °C -0.3 °C 1007.7 hPa NNW 5 km/h 11.1 km/h 95 % 1.02 mm
13:26 0.4 °C -0.3 °C 1007.7 hPa NNW 3.1 km/h 7.4 km/h 95 % 1.02 mm
13:31 0.4 °C -0.3 °C 1007.3 hPa NW 5.6 km/h 9.3 km/h 95 % 1.27 mm
13:36 0.4 °C -0.3 °C 1007.3 hPa North 5.3 km/h 9.3 km/h 95 % 1.02 mm
13:41 0.4 °C -0.3 °C 1007.3 hPa NW 4 km/h 11.1 km/h 95 % 1.02 mm
13:46 0.4 °C -0.3 °C 1007.3 hPa NNW 3.4 km/h 8 km/h 95 % 1.27 mm
13:52 0.5 °C -0.2 °C 1007.3 hPa NW 4.8 km/h 13 km/h 95 % 1.02 mm
13:57 0.6 °C -0.2 °C 1007.3 hPa NNW 5.1 km/h 7.4 km/h 95 % 1.02 mm
14:02 0.5 °C -0.3 °C 1007.3 hPa North 7.2 km/h 8 km/h 94 % 0.76 mm
14:07 0.4 °C -0.3 °C 1007.3 hPa NNE 6.1 km/h 9.7 km/h 95 % 0.76 mm
14:12 0.5 °C -0.3 °C 1007.3 hPa NNE 4.7 km/h 13 km/h 94 % 0.76 mm
14:17 0.5 °C -0.2 °C 1007.3 hPa NW 4.3 km/h 7.4 km/h 95 % 0.51 mm
14:22 0.4 °C -0.4 °C 1007.3 hPa NNW 6.6 km/h 11.1 km/h 94 % 0.51 mm
14:27 0.4 °C -0.4 °C 1007.3 hPa North 4.5 km/h 9.7 km/h 94 % 0.51 mm
14:32 0.3 °C -0.5 °C 1007.3 hPa NNE 7.1 km/h 11.3 km/h 94 % 0.51 mm
14:37 0.3 °C -0.5 °C 1007.3 hPa NW 2.7 km/h 5.6 km/h 94 % 0.51 mm
14:42 0.4 °C -0.4 °C 1007 hPa NW 0.6 km/h 3.7 km/h 94 % 0.51 mm
14:47 0.6 °C -0.1 °C 1007 hPa WNW 3.1 km/h 5.6 km/h 95 % 0.25 mm
14:53 0.7 °C 0 °C 1007 hPa NNE 1.6 km/h 5.6 km/h 95 % 0.25 mm
14:58 0.8 °C -0.1 °C 1007 hPa NNW 0.6 km/h 5.6 km/h 94 % 0.51 mm
15:03 0.9 °C 0.2 °C 1007 hPa NNW 2.4 km/h 7.4 km/h 95 % 0.51 mm
15:08 0.9 °C 0.1 °C 1007 hPa NW 1.6 km/h 9.7 km/h 94 % 0 mm
15:13 0.9 °C 0.1 °C 1007 hPa WNW 6.3 km/h 9.3 km/h 94 % 0.51 mm
15:18 0.9 °C 0.1 °C 1007 hPa NNW 5.5 km/h 11.3 km/h 94 % 0.76 mm
15:23 0.9 °C 0.1 °C 1007 hPa NW 3.2 km/h 14.5 km/h 94 % 0 mm
15:28 0.9 °C 0.1 °C 1007 hPa NW 3.7 km/h 7.4 km/h 94 % 0.51 mm
15:33 0.9 °C 0.1 °C 1007 hPa NW 4.8 km/h 14.5 km/h 94 % 0 mm
15:38 0.9 °C 0.1 °C 1007.3 hPa NW 3.2 km/h 9.7 km/h 94 % 0 mm
15:43 0.9 °C 0.1 °C 1007.3 hPa NW 3.2 km/h 9.7 km/h 94 % 0 mm
15:48 0.9 °C -0.1 °C 1007 hPa NW 8 km/h 12.9 km/h 93 % 0 mm
15:53 0.9 °C -0.1 °C 1007.3 hPa NW 1.6 km/h 9.7 km/h 93 % 0 mm
15:58 1 °C 0 °C 1007.3 hPa WNW 7.4 km/h 11.1 km/h 93 % 0.25 mm
16:03 1 °C -0.2 °C 1007.3 hPa WNW 11.3 km/h 25.7 km/h 92 % 0 mm
16:08 1 °C -0.3 °C 1007.3 hPa NW 12.9 km/h 30.6 km/h 91 % 0 mm
16:13 0.9 °C -0.8 °C 1007.3 hPa WNW 4.8 km/h 33.8 km/h 88 % 0 mm
16:18 0.9 °C -1 °C 1007.7 hPa WNW 12.9 km/h 24.1 km/h 87 % 0 mm
16:23 0.9 °C -0.8 °C 1007.7 hPa WNW 14.5 km/h 24.1 km/h 88 % 0 mm
16:28 0.9 °C -0.8 °C 1007.7 hPa WNW 11.3 km/h 20.9 km/h 88 % 0 mm
16:33 0.9 °C -0.8 °C 1007.7 hPa WNW 9.7 km/h 19.3 km/h 88 % 0 mm
16:38 0.9 °C -1 °C 1007.7 hPa West 8 km/h 29 km/h 87 % 0 mm
16:43 0.9 °C -1.1 °C 1007.7 hPa WNW 4.8 km/h 19.3 km/h 86 % 0 mm
16:48 1 °C -1.1 °C 1007.7 hPa North 9.8 km/h 18.5 km/h 86 % 0 mm
16:53 1 °C -1.1 °C 1008 hPa NW 10.3 km/h 14.8 km/h 86 % 0 mm
16:58 1 °C -1.2 °C 1007.7 hPa NNW 8.4 km/h 18.5 km/h 85 % 0 mm
17:03 1.1 °C -1.3 °C 1008 hPa NW 8 km/h 29 km/h 84 % 0 mm
17:08 1.1 °C -1.5 °C 1008 hPa NW 8 km/h 27.4 km/h 83 % 0 mm
17:13 1.1 °C -1.6 °C 1008 hPa WNW 12.9 km/h 24.1 km/h 82 % 0 mm
17:18 1.1 °C -2.1 °C 1008.4 hPa NW 11.3 km/h 37 km/h 79 % 0 mm
17:23 1.1 °C -2.3 °C 1008.4 hPa NNW 9.7 km/h 20.9 km/h 78 % 0 mm
17:28 1 °C -2.6 °C 1008.4 hPa NNW 9.7 km/h 20.9 km/h 77 % 0 mm
17:33 0.9 °C -2.6 °C 1008.4 hPa NNW 11.3 km/h 24.1 km/h 77 % 0 mm
17:38 0.9 °C -3.1 °C 1008.4 hPa NNE 15.4 km/h 27.8 km/h 75 % 0 mm
17:43 0.8 °C -3.2 °C 1008.7 hPa NNW 9.7 km/h 27.4 km/h 75 % 0 mm
17:48 0.7 °C -3.6 °C 1008.7 hPa NNW 8 km/h 22.5 km/h 73 % 0 mm
17:53 0.6 °C -3.7 °C 1008.7 hPa NW 11.3 km/h 29 km/h 73 % 0 mm
17:58 0.5 °C -3.8 °C 1008.7 hPa NW 9.2 km/h 17.7 km/h 73 % 0 mm
18:03 0.4 °C -4.4 °C 1008.7 hPa West 6.9 km/h 20.4 km/h 70 % 0 mm
18:08 0.4 °C -4.3 °C 1009 hPa WNW 11.7 km/h 18.5 km/h 71 % 0 mm
18:13 0.3 °C -4.6 °C 1009 hPa NW 15.1 km/h 20.4 km/h 70 % 0 mm
18:18 0.2 °C -4.8 °C 1009.4 hPa WNW 10.6 km/h 20.4 km/h 69 % 0 mm
18:23 0.2 °C -5.1 °C 1009.4 hPa NNW 12.4 km/h 24.1 km/h 68 % 0 mm
18:28 0.1 °C -5.3 °C 1009.7 hPa WNW 14.2 km/h 25.9 km/h 67 % 0 mm
18:33 -0.1 °C -5.1 °C 1009.7 hPa NW 11.6 km/h 22.5 km/h 69 % 0 mm
18:38 -0.1 °C -4.9 °C 1009.7 hPa WNW 13.7 km/h 25.9 km/h 70 % 0 mm
18:43 -0.2 °C -5.8 °C 1010 hPa WNW 8.7 km/h 20.4 km/h 66 % 0 mm
18:48 -0.2 °C -6 °C 1010 hPa NW 14.2 km/h 33.3 km/h 65 % 0 mm
18:53 -0.3 °C -6.1 °C 1010 hPa WNW 13 km/h 22.2 km/h 65 % 0 mm
18:58 -0.3 °C -6.1 °C 1010.4 hPa NNW 11.1 km/h 18.5 km/h 65 % 0 mm
19:03 -0.4 °C -6.2 °C 1010.4 hPa WNW 15.8 km/h 22.5 km/h 65 % 0 mm
19:08 -0.5 °C -6.5 °C 1010.4 hPa NNW 9 km/h 18.5 km/h 64 % 0 mm
19:13 -0.6 °C -6.6 °C 1010.4 hPa WNW 15.1 km/h 31.5 km/h 64 % 0 mm
19:18 -0.7 °C -6.4 °C 1010.4 hPa NNE 9.5 km/h 18.5 km/h 65 % 0 mm
19:23 -0.7 °C -6.7 °C 1010.4 hPa NW 10.6 km/h 18.5 km/h 64 % 0 mm
19:28 -0.8 °C -6.6 °C 1010.7 hPa NNW 9.5 km/h 16.7 km/h 65 % 0 mm
19:33 -0.8 °C -6.7 °C 1010.7 hPa SSW 7.7 km/h 18.5 km/h 64 % 0 mm
19:38 -0.8 °C -6.8 °C 1010.7 hPa North 12.2 km/h 25.9 km/h 64 % 0 mm
19:43 -0.8 °C -6.8 °C 1010.7 hPa NNW 8 km/h 14.8 km/h 64 % 0 mm
19:48 -0.9 °C -6.4 °C 1010.7 hPa North 5 km/h 17.7 km/h 66 % 0 mm
19:50 -0.9 °C -6.4 °C 1010.7 hPa NW 10.3 km/h 18.5 km/h 66 % 0 mm
19:55 -0.9 °C -6.5 °C 1011.1 hPa NW 9.2 km/h 11.3 km/h 66 % 0 mm
20:00 -1 °C -6.6 °C 1011.1 hPa NW 14.6 km/h 22.2 km/h 66 % 0 mm
20:05 -1 °C -6.9 °C 1011.1 hPa NW 8 km/h 16.1 km/h 64 % 0 mm
20:10 -1.2 °C -7.3 °C 1011.1 hPa NNW 15 km/h 20.4 km/h 63 % 0 mm
20:15 -1.2 °C -6.9 °C 1011.4 hPa NW 16.9 km/h 25.9 km/h 65 % 0 mm
20:20 -1.3 °C -7.3 °C 1011.4 hPa NW 12.9 km/h 27.4 km/h 64 % 0 mm
20:25 -1.4 °C -7.1 °C 1011.4 hPa NNW 13.5 km/h 24.1 km/h 65 % 0 mm
20:30 -1.4 °C -7.4 °C 1011.7 hPa NW 15.9 km/h 35.2 km/h 64 % 0 mm
20:35 -1.5 °C -7.2 °C 1011.7 hPa North 7.6 km/h 16.7 km/h 65 % 0 mm
20:40 -1.6 °C -7.3 °C 1011.7 hPa NW 14.2 km/h 27.8 km/h 65 % 0 mm
20:45 -1.7 °C -7.4 °C 1011.7 hPa NNW 13 km/h 20.4 km/h 65 % 0 mm
20:50 -1.7 °C -7.8 °C 1011.7 hPa NW 14.3 km/h 37 km/h 63 % 0 mm
20:55 -1.8 °C -7.7 °C 1012.1 hPa WSW 15.8 km/h 18.5 km/h 64 % 0 mm
21:00 -1.8 °C -7.5 °C 1012.1 hPa NNW 7.7 km/h 22.2 km/h 65 % 0 mm
21:05 -1.8 °C -7.7 °C 1012.1 hPa WNW 10.8 km/h 31.5 km/h 64 % 0 mm
21:10 -1.8 °C -7.7 °C 1012.4 hPa NNW 15.1 km/h 35.2 km/h 64 % 0 mm
21:15 -1.9 °C -7.6 °C 1012.4 hPa NW 22.2 km/h 38.9 km/h 65 % 0 mm
21:20 -2 °C -7.7 °C 1012.4 hPa NW 13.4 km/h 31.5 km/h 65 % 0 mm
21:25 -2.1 °C -7.6 °C 1012.4 hPa WNW 15.6 km/h 24.1 km/h 66 % 0 mm
21:30 -2.2 °C -7.9 °C 1013.1 hPa West 20.4 km/h 40.7 km/h 65 % 0 mm
21:35 -2.2 °C -7.9 °C 1012.8 hPa NNW 15.9 km/h 31.5 km/h 65 % 0 mm
21:40 -2.3 °C -8.2 °C 1013.1 hPa NNW 20.4 km/h 38.9 km/h 64 % 0 mm
21:45 -2.5 °C -8.4 °C 1013.1 hPa NNW 10.5 km/h 25.9 km/h 64 % 0 mm
21:50 -2.6 °C -8.4 °C 1013.1 hPa West 15.1 km/h 29.6 km/h 64 % 0 mm
21:55 -2.6 °C -8.5 °C 1013.1 hPa North 11.4 km/h 22.2 km/h 64 % 0 mm
22:00 -2.7 °C -8.8 °C 1013.4 hPa WNW 20.6 km/h 29.6 km/h 63 % 0 mm
22:05 -2.8 °C -8.8 °C 1013.4 hPa NNW 16.6 km/h 31.5 km/h 63 % 0 mm
22:10 -2.8 °C -8.7 °C 1013.8 hPa NNW 13 km/h 35.2 km/h 64 % 0 mm
22:15 -2.9 °C -8.6 °C 1013.8 hPa NNW 10.1 km/h 24.1 km/h 65 % 0 mm
22:20 -3 °C -9.1 °C 1013.8 hPa NW 16.4 km/h 33.3 km/h 63 % 0 mm
22:25 -3.1 °C -9.4 °C 1013.8 hPa NW 20.1 km/h 29 km/h 62 % 0 mm
22:30 -3.2 °C -9.3 °C 1014.1 hPa WNW 16.7 km/h 29.6 km/h 63 % 0 mm
22:35 -3.3 °C -9.3 °C 1014.1 hPa NNW 19.6 km/h 37 km/h 63 % 0 mm
22:40 -3.4 °C -9.4 °C 1014.1 hPa WNW 14.3 km/h 31.5 km/h 63 % 0 mm
22:45 -3.4 °C -9.3 °C 1014.1 hPa North 13.7 km/h 37 km/h 64 % 0 mm
22:50 -3.6 °C -9.6 °C 1014.1 hPa NW 17.5 km/h 37 km/h 63 % 0 mm
22:55 -3.7 °C -10.1 °C 1014.1 hPa WNW 12.7 km/h 35.2 km/h 61 % 0 mm
23:01 -3.7 °C -9.7 °C 1014.1 hPa NNW 12.1 km/h 27.8 km/h 63 % 0 mm
23:06 -3.8 °C -10.1 °C 1014.4 hPa NW 18.7 km/h 37 km/h 62 % 0 mm
23:11 -3.9 °C -10.4 °C 1014.4 hPa WNW 19.6 km/h 42.6 km/h 61 % 0 mm
23:16 -4 °C -11.1 °C 1014.4 hPa WNW 20 km/h 40.7 km/h 58 % 0 mm
23:21 -4.2 °C -11.2 °C 1014.4 hPa West 19 km/h 35.2 km/h 58 % 0 mm
23:26 -4.2 °C -11.3 °C 1014.4 hPa NW 17.9 km/h 31.5 km/h 58 % 0 mm
23:31 -4.3 °C -11.4 °C 1014.8 hPa WSW 17.2 km/h 37 km/h 58 % 0 mm
23:36 -4.4 °C -11.2 °C 1014.8 hPa NNW 12.2 km/h 22.2 km/h 59 % 0 mm
23:41 -4.4 °C -11.7 °C 1014.8 hPa WNW 13.2 km/h 30.6 km/h 57 % 0 mm
23:46 -4.5 °C -11.7 °C 1014.8 hPa NW 17.2 km/h 38.6 km/h 57 % 0 mm
23:51 -4.6 °C -11.6 °C 1014.8 hPa WNW 13.8 km/h 30.6 km/h 58 % 0 mm
23:56 -4.7 °C -11.7 °C 1014.8 hPa WNW 14.5 km/h 24.1 km/h 58 % 0 mm
Crab Meadow Weather
Compliments of Weather Underground - 3 mb

Script developed by  Jim McMurry - jmcmurry@mwt.net Adapted for the template by  Wim van der Kuil - Leuven-Template.eu

Astronomy: The gravity on Jupiter is 2.6 times that of the Earth.